7 * 24
多渠道服务支持
STARLINK-32447 是 SpaceX Starlink 低轨卫星互联网项目中的一颗工作卫星,属于第三代星群(v1.5 或 v2 版本)。它运行在约 550 公里的近地轨道,旨在为全球用户提供高速互联网服务。该卫星采用先进的相控阵天线和激光通信技术,具备高带宽和低延迟特性,支持偏远地区的网络接入。作为 Starlink 计划的一部分,STARLINK-32447 与其他数千颗卫星协同工作,构建全球覆盖的卫星通信网络。
  
                美国
                (US)
                | 数据来源 | 国际轨道数据 | 
| 星历时间: | 2025-11-03T23:06:21+0800 14小时前 查看轨道信息 | 
| 半长轴: | 6853.386km | 
| 偏心率: | 0.0001453 | 
| 轨道倾角: | 53.160° | 
| 近地点辐角 | 93.690° | 
| 升交点赤经 | 59.542° | 
| 平近点角 | 266.427° | 
| 近地点: | 474.255km | 
| 远地点: | 476.247km | 
| 周期: | 94.106分钟 | 
| 每日圈数: | 15.301888 |